SCP
0 0 0 0 0 0 0 0 0 0 0 0 0 0 0 0 0 0 0 0 0 0 0 0 0 0 0 0 0 0 0 0 0 0 0 0 0 0 0 0 0 0 0
0 0 0 0 0 0 0 0 0 0 0 0 0 0 0 0 0 0 0 0 0 0 0 0 0 0 0 0 0 0 0 0 0 0 0 0 0 0 0 0 0 0 0
0 0 0 0 0 0 0 0 0 0 0 0 0 0 0 0 0 0 0 0 0 0 0 0 0 0 0 0 0 0 0 0 0 0 0 0 0 0 0 0 0 0 0
0 0 0 0 0 0 0 0 0 0 0 0 0 0 0 0 0 0 0 0 0 0 0 0 0 0 0 0 0 0 0 0 0 0 0 0 0 0 0 0 0 0 0
0 0 0 0 0 0 0 0 0 0 0 0 0 0 0 0 0 0 0 0 0 0 0 0 0 0 0 0 0 0 0 0 0 0 0 0 0 0 0 0 0 0 0
0 0 0 0 0 0 0 0 0 0 0 0 0 0 0 0 0 0 0 0 0 0 0 0 0 0 0 0 0 0 0 0 0 0 0 0 0 0 0 0 0 0 0
0 0 0 0 0 0 0 0 0 0 0 0 0 0 0 0 0 0 0 0 0 0 0 0 0 0 0 0 0 0 0 0 0 0 0 0 0 0 0 0 0 0 0
0 0 0 0 0 0 0 0 0 0 0 0 0 0 0 0 0 0 0 0 0 0 0 0 0 0 0 0 0 0 0 0 0 0 0 0 0 0 0 0 0 0 0
0 0 0 0 0 0 0 0 0 0 0 0 0 0 0 0 0 0 0 0 0 0 0 0 0 0 0 0 0 0 0 0 0 0 0 0 0 0 0 0 0 0 0
0 0 0 0 0 0 0 0 0 0 0 0 0 0 0 0 0 0 0 0 0 0 0 0 0 0 0 0 0 0 0 0 0 0 0 0 0 0 0 0 0 0 0
0 0 0 0 0 0 0 0 0 0 0 0 0 0 0 0 0 0 0 0 0 0 0 0 0 0 0 0 0 0 0 0 0 0 0 0 0 0 0 0 0 0 0
0 0 0 0 0 0 0 0 0 0 0 0 0 0 0 0 0 0 0 0 0 0 0 0 0 0 0 0 0 0 0 0 0 0 0 0 0 0 0 0 0 0 0
0 0 0 0 0 0 0 0 0 0 0 0 0 0 0 0 0 0 0 0 0 0 0 0 0 0 0 0 0 0 0 0 0 0 0 0 0 0 0 0 0 0 0
0 0 0 0 0 0 0 0 0 0 0 0 0 0 0 0 0 0 0 0 0 0 0 0 0 0 0 0 0 0 0 0 0 0 0 0 0 0 0 0 0 0 0
0 0 0 0 0 0 0 0 0 0 0 0 0 0 0 0 0 0 0 0 0 0 0 0 0 0 0 0 0 0 0 0 0 0 0 0 0 0 0 0 0 0 0
0 0 0 0 0 0 0 0 0 0 0 0 0 0 0 0 0 0 0 0 0 0 0 0 0 0 0 0 0 0 0 0 0 0 0 0 0 0 0 0 0 0 0
0 0 0 0 0 0 0 0 0 0 0 0 0 0 0 0 0 0 0 0 0 0 0 0 0 0 0 0 0 0 0 0 0 0 0 0 0 0 0 0 0 -0 0
0 0 0 0 0 0 0 0 0 0 0 0 0 0 0 0 0 0 0 0 0 0 0 0 0 0 0 0 0 0 0 0 0 0 0 0 0 0 0 0 0 -0 0
0 0 0 0 0 0 0 0 0 0 0 0 0 0 0 0 0 0 0 0 0 0 0 0 0 0 0 0 0 0 0 0 0 0 0 0 0 0 0 0 -0 -0 0
0 0 0 0 0 0 0 0 0 0 0 0 0 0 0 0 0 0 0 0 0 0 0 0 0 0 0 0 0 0 0 0 0 0 0 0 0 0 -0 -0 -0 -0 0
0 0 0 0 0 0 0 0 0 0 0 0 0 0 0 0 0 0 0 0 0 0 0 0 0 0 0 0 0 0 0 0 0 0 0 0 0 0 0 0 -0 -0 0
0 0 0 0 0 0 0 0 0 0 0 0 0 0 0 0 0 0 0 0 0 0 0 0 0 0 0 0 0 0 0 0 0 0 0 0 0 0 0 0 -0 0 0
0 0 0 0 0 0 0 0 0 0 0 0 0 0 0 0 0 0 0 0 0 0 0 0 0 0 0 0 0 0 0 0 0 0 0 0 0 0 0 0 0 -0 0
0 0 0 0 0 0 0 0 0 0 0 0 0 0 0 0 0 0 0 0 0 0 0 0 0 0 0 0 0 0 0 0 0 0 0 0 0 0 0 0 -0 -0 0
0 0 0 0 0 0 0 0 0 0 0 0 0 0 0 0 0 0 0 0 0 0 0 0 0 0 0 0 0 0 0 0 0 0 0 0 0 0 0 0 0 0 0
0 0 0 0 0 0 0 0 0 0 0 0 0 0 0 0 0 0 0 0 0 0 0 0 0 0 0 0 0 0 0 0 0 0 0 0 0 0 0 0 0 0 0
Wind_Speed_500mb
19 21 18 20 14 9 8 5 3 2 5 14 20 23 34 35 36 34 42 46 38 37 40 38 39 42 42 42 42 43 43 44 44 45 47 47 47 48 49 50 50 51 51
31 28 27 20 17 15 14 11 7 5 5 11 19 22 26 34 32 29 23 29 37 34 37 39 38 40 41 42 42 43 42 43 46 46 47 47 48 51 51 51 52 53 53
44 38 32 31 28 23 20 19 13 11 13 15 21 23 26 29 31 32 29 23 13 10 19 32 35 37 39 42 42 42 41 43 45 46 48 50 51 52 53 53 54 54 54
47 48 39 35 31 28 27 24 21 21 21 20 26 28 29 30 33 30 24 19 15 11 10 18 30 36 39 39 39 40 42 43 45 47 49 50 51 52 53 53 53 54 55
48 54 51 41 36 34 32 28 27 25 28 29 32 35 35 33 30 27 24 21 17 13 12 16 17 26 35 38 38 39 40 42 44 46 48 49 50 51 52 53 55 57 58
49 53 54 46 44 39 40 38 35 34 36 35 37 36 33 30 29 27 24 21 17 13 13 14 16 17 23 33 37 37 37 40 42 44 45 47 48 50 52 55 56 57 60
54 53 49 55 53 53 43 40 41 42 47 47 48 39 33 30 31 27 24 19 16 14 15 15 15 18 23 27 34 36 36 37 39 41 43 46 49 51 52 55 56 59 59
56 60 60 60 74 57 49 52 51 48 54 50 49 48 30 26 25 22 20 20 20 18 17 17 17 17 20 24 30 33 34 35 36 38 41 44 48 52 55 55 56 58 61
63 65 58 60 76 63 55 59 53 55 50 62 57 30 20 17 32 24 25 24 22 20 20 20 18 17 18 20 22 23 27 30 31 34 37 41 45 48 53 56 60 63 68
70 68 61 61 64 53 54 68 64 63 55 68 67 58 32 23 30 26 31 27 26 24 23 22 20 17 16 16 17 19 22 25 27 30 34 39 43 48 52 57 62 68 73
67 70 64 62 64 55 59 69 67 65 68 75 69 62 51 33 29 25 37 42 36 29 26 22 20 17 14 13 13 13 16 20 24 29 34 39 43 48 52 56 62 68 74
69 69 68 62 65 69 61 67 68 75 78 73 72 64 63 50 40 30 25 45 39 34 29 25 21 17 13 10 8 9 12 16 22 27 32 38 44 48 54 59 64 71 77
68 69 65 66 67 64 63 62 72 73 80 84 72 66 61 61 45 39 38 45 50 40 32 29 24 19 14 9 5 4 9 15 21 27 34 40 47 52 58 63 68 73 79
53 58 60 61 64 63 70 68 71 72 79 77 69 61 59 62 60 55 54 51 47 42 40 32 30 24 17 11 4 5 10 16 23 29 35 42 49 55 60 66 72 77 82
53 53 57 60 56 62 67 68 65 72 73 74 69 62 59 55 55 55 54 51 53 44 47 39 31 28 19 14 11 11 13 20 26 32 37 44 52 57 63 70 75 83 87
49 42 46 53 55 56 60 66 66 65 69 68 67 65 57 54 52 52 49 48 46 29 36 36 41 26 25 16 16 16 18 24 30 36 41 47 53 58 65 74 79 86 91
47 49 49 50 53 57 64 60 63 67 70 70 66 61 59 52 53 51 47 49 46 30 28 30 32 30 22 21 18 21 24 26 31 37 43 49 54 61 68 76 82 88 93
48 48 48 52 54 57 59 61 64 67 62 59 55 59 54 57 53 50 49 47 40 31 23 17 31 25 22 19 20 25 28 31 33 37 43 47 55 65 72 78 84 88 94
49 50 51 54 56 58 58 59 59 58 56 54 52 49 56 55 53 49 42 39 31 22 17 26 25 23 18 19 22 29 32 32 34 39 43 47 57 66 72 79 83 89 88
46 49 51 51 53 54 54 54 53 52 51 52 50 53 58 53 47 44 42 33 30 24 28 23 24 20 19 27 36 34 34 35 35 41 47 51 59 67 72 82 84 86 81
44 49 49 49 50 51 52 54 54 59 57 54 61 59 52 48 40 38 37 40 23 28 30 34 25 26 30 37 38 35 36 39 38 48 54 57 65 69 76 81 84 81 66
47 46 48 46 50 53 53 53 57 56 56 54 58 48 61 45 45 45 48 29 31 27 31 34 29 25 35 40 34 33 37 42 50 45 63 62 67 73 80 84 81 64 58
43 45 46 47 50 53 56 60 58 59 58 59 58 67 57 49 54 45 34 34 30 35 41 34 27 34 44 36 35 34 36 40 48 52 63 72 69 77 84 86 75 58 60
43 44 47 47 51 52 59 63 62 64 58 59 63 58 61 61 46 37 38 36 37 44 39 26 38 44 44 39 38 39 41 45 50 53 54 74 72 83 87 88 67 65 66
45 42 45 46 49 54 62 68 68 70 68 69 65 70 65 50 47 45 32 42 40 47 39 36 42 48 48 46 44 44 44 48 56 56 56 61 78 87 91 85 76 77 69
39 38 42 44 47 54 67 74 75 78 71 65 69 67 62 56 39 51 49 47 46 49 44 41 45 54 55 51 51 53 48 51 51 56 51 61 75 74 83 88 85 78 79
Wind_Direction_500mb
220 220 225 213 216 219 241 217 220 160 161 173 175 175 167 152 150 149 141 130 133 110 86 84 76 72 71 67 63 62 60 57 56 54 53 50 47 45 43 41 37 34 30
212 222 230 225 225 232 244 225 251 257 227 187 182 184 176 171 174 176 174 161 149 107 89 80 76 73 71 69 65 63 60 57 56 54 50 49 46 44 41 39 36 32 27
224 219 230 225 226 229 230 227 232 237 231 195 180 183 180 174 175 173 171 165 147 127 107 85 80 75 72 70 66 63 59 57 55 53 52 50 47 44 42 38 35 31 27
234 230 227 227 233 231 232 226 229 241 205 201 186 179 180 177 172 176 177 167 163 142 122 103 90 81 77 72 67 64 61 59 58 56 54 51 46 44 41 37 33 30 25
240 237 227 228 227 234 237 235 234 224 207 196 183 176 171 172 173 176 181 180 174 153 127 103 101 101 83 77 71 66 63 62 60 58 55 51 47 42 38 33 30 25 22
242 241 234 226 235 233 224 227 234 219 211 201 183 173 175 178 181 182 184 184 174 156 134 121 112 102 95 83 78 71 67 64 60 56 52 48 43 37 32 29 26 22 18
239 239 244 228 238 227 235 228 230 217 202 202 185 174 172 185 191 187 187 183 169 160 155 147 126 101 87 87 90 79 70 63 58 52 46 41 37 32 28 23 20 17 13
238 239 240 242 243 234 228 234 225 208 207 204 201 188 182 195 190 190 184 182 180 169 157 148 137 121 103 89 83 79 71 63 54 45 39 34 30 26 23 18 15 12 8
226 241 238 236 236 243 241 231 239 223 227 209 207 200 182 204 189 193 195 193 187 176 167 157 148 132 111 97 85 73 65 56 48 39 32 26 23 20 17 13 9 5 1
237 240 243 240 239 234 251 238 232 225 238 221 205 207 210 214 189 189 198 199 195 187 177 164 153 140 123 105 87 69 59 51 42 34 26 20 16 13 9 6 2 357 355
234 239 238 242 242 246 243 235 229 235 233 228 219 216 214 216 213 212 194 194 194 190 185 176 166 151 134 114 91 67 53 44 33 25 17 13 9 7 4 360 356 352 351
241 238 236 237 238 245 242 238 233 233 233 223 224 219 218 215 216 212 209 197 199 189 185 182 174 166 156 136 107 67 40 31 20 11 5 2 0 360 358 354 350 348 346
242 237 232 237 238 243 243 244 239 241 233 224 226 219 222 232 233 236 240 198 190 188 188 188 183 181 176 160 133 65 6 6 1 355 352 350 351 351 350 349 346 343 342
239 233 237 240 238 242 248 239 239 237 233 229 227 219 231 239 239 241 243 223 191 188 193 192 188 191 189 199 217 296 330 338 341 341 341 342 344 345 344 344 342 341 341
237 237 236 240 243 241 244 239 239 238 227 226 223 226 232 238 238 238 240 235 218 186 193 197 198 198 199 215 247 283 309 323 327 332 336 337 340 342 342 340 341 340 340
243 240 242 241 239 247 246 244 236 228 225 224 224 230 236 239 238 228 226 214 207 204 197 211 212 203 214 230 257 282 306 322 325 329 334 337 339 341 341 341 342 339 340
241 243 245 248 247 247 241 237 235 229 226 225 227 229 235 236 228 217 211 202 202 222 216 204 202 210 217 241 267 290 304 316 323 326 331 338 341 342 343 341 340 341 339
244 245 250 247 248 244 240 241 238 232 223 223 224 230 226 220 209 205 195 197 211 210 206 210 209 211 233 256 284 292 305 315 320 322 329 339 340 344 342 339 341 342 339
239 242 248 249 250 245 242 239 231 226 221 218 215 228 217 208 200 193 199 200 198 197 239 225 218 223 245 274 286 299 304 311 319 322 331 337 342 342 338 339 343 342 338
243 247 247 246 247 242 237 233 228 215 208 210 216 216 210 203 198 202 196 190 212 237 218 228 236 250 273 302 295 298 302 308 319 325 329 338 340 337 339 340 345 342 338
247 245 246 245 238 232 230 228 219 209 209 212 205 206 197 197 203 197 195 221 218 220 244 244 249 274 281 284 289 297 306 313 325 327 329 336 334 338 341 340 344 340 338
241 243 247 245 237 228 225 218 215 209 214 204 206 204 206 199 195 206 231 208 221 239 246 260 248 275 272 277 287 295 305 316 325 332 324 331 335 339 338 337 342 338 342
242 242 242 242 235 228 218 211 212 213 208 213 218 212 193 202 207 229 218 230 221 237 242 240 266 268 269 277 284 294 302 310 316 326 322 325 338 334 333 334 339 343 346
242 243 243 238 233 227 217 214 212 210 216 219 214 212 216 215 234 245 241 235 232 239 240 247 265 271 273 278 284 291 298 302 312 317 321 322 333 329 330 330 338 343 342
242 244 243 238 233 222 215 214 211 217 214 216 214 216 212 224 237 251 264 256 233 241 239 252 262 267 273 278 282 286 295 300 307 314 323 320 326 325 327 329 334 337 334
242 247 245 240 232 219 216 220 214 224 220 211 215 213 222 226 244 262 272 253 235 241 246 258 256 267 273 278 282 286 292 293 298 309 320 313 316 323 325 325 323 329 331
Wind_Speed_850mb
19 21 18 20 14 9 8 5 3 2 5 14 20 23 34 35 36 34 42 46 38 37 40 38 39 42 42 42 42 43 43 44 44 45 47 47 47 48 49 50 50 51 51
31 28 27 20 17 15 14 11 7 5 5 11 19 22 26 34 32 29 23 29 37 34 37 39 38 40 41 42 42 43 42 43 46 46 47 47 48 51 51 51 52 53 53
44 38 32 31 28 23 20 19 13 11 13 15 21 23 26 29 31 32 29 23 13 10 19 32 35 37 39 42 42 42 41 43 45 46 48 50 51 52 53 53 54 54 54
47 48 39 35 31 28 27 24 21 21 21 20 26 28 29 30 33 30 24 19 15 11 10 18 30 36 39 39 39 40 42 43 45 47 49 50 51 52 53 53 53 54 55
48 54 51 41 36 34 32 28 27 25 28 29 32 35 35 33 30 27 24 21 17 13 12 16 17 26 35 38 38 39 40 42 44 46 48 49 50 51 52 53 55 57 58
49 53 54 46 44 39 40 38 35 34 36 35 37 36 33 30 29 27 24 21 17 13 13 14 16 17 23 33 37 37 37 40 42 44 45 47 48 50 52 55 56 57 60
54 53 49 55 53 53 43 40 41 42 47 47 48 39 33 30 31 27 24 19 16 14 15 15 15 18 23 27 34 36 36 37 39 41 43 46 49 51 52 55 56 59 59
56 60 60 60 74 57 49 52 51 48 54 50 49 48 30 26 25 22 20 20 20 18 17 17 17 17 20 24 30 33 34 35 36 38 41 44 48 52 55 55 56 58 61
63 65 58 60 76 63 55 59 53 55 50 62 57 30 20 17 32 24 25 24 22 20 20 20 18 17 18 20 22 23 27 30 31 34 37 41 45 48 53 56 60 63 68
70 68 61 61 64 53 54 68 64 63 55 68 67 58 32 23 30 26 31 27 26 24 23 22 20 17 16 16 17 19 22 25 27 30 34 39 43 48 52 57 62 68 73
67 70 64 62 64 55 59 69 67 65 68 75 69 62 51 33 29 25 37 42 36 29 26 22 20 17 14 13 13 13 16 20 24 29 34 39 43 48 52 56 62 68 74
69 69 68 62 65 69 61 67 68 75 78 73 72 64 63 50 40 30 25 45 39 34 29 25 21 17 13 10 8 9 12 16 22 27 32 38 44 48 54 59 64 71 77
68 69 65 66 67 64 63 62 72 73 80 84 72 66 61 61 45 39 38 45 50 40 32 29 24 19 14 9 5 4 9 15 21 27 34 40 47 52 58 63 68 73 79
53 58 60 61 64 63 70 68 71 72 79 77 69 61 59 62 60 55 54 51 47 42 40 32 30 24 17 11 4 5 10 16 23 29 35 42 49 55 60 66 72 77 82
53 53 57 60 56 62 67 68 65 72 73 74 69 62 59 55 55 55 54 51 53 44 47 39 31 28 19 14 11 11 13 20 26 32 37 44 52 57 63 70 75 83 87
49 42 46 53 55 56 60 66 66 65 69 68 67 65 57 54 52 52 49 48 46 29 36 36 41 26 25 16 16 16 18 24 30 36 41 47 53 58 65 74 79 86 91
47 49 49 50 53 57 64 60 63 67 70 70 66 61 59 52 53 51 47 49 46 30 28 30 32 30 22 21 18 21 24 26 31 37 43 49 54 61 68 76 82 88 93
48 48 48 52 54 57 59 61 64 67 62 59 55 59 54 57 53 50 49 47 40 31 23 17 31 25 22 19 20 25 28 31 33 37 43 47 55 65 72 78 84 88 94
49 50 51 54 56 58 58 59 59 58 56 54 52 49 56 55 53 49 42 39 31 22 17 26 25 23 18 19 22 29 32 32 34 39 43 47 57 66 72 79 83 89 88
46 49 51 51 53 54 54 54 53 52 51 52 50 53 58 53 47 44 42 33 30 24 28 23 24 20 19 27 36 34 34 35 35 41 47 51 59 67 72 82 84 86 81
44 49 49 49 50 51 52 54 54 59 57 54 61 59 52 48 40 38 37 40 23 28 30 34 25 26 30 37 38 35 36 39 38 48 54 57 65 69 76 81 84 81 66
47 46 48 46 50 53 53 53 57 56 56 54 58 48 61 45 45 45 48 29 31 27 31 34 29 25 35 40 34 33 37 42 50 45 63 62 67 73 80 84 81 64 58
43 45 46 47 50 53 56 60 58 59 58 59 58 67 57 49 54 45 34 34 30 35 41 34 27 34 44 36 35 34 36 40 48 52 63 72 69 77 84 86 75 58 60
43 44 47 47 51 52 59 63 62 64 58 59 63 58 61 61 46 37 38 36 37 44 39 26 38 44 44 39 38 39 41 45 50 53 54 74 72 83 87 88 67 65 66
45 42 45 46 49 54 62 68 68 70 68 69 65 70 65 50 47 45 32 42 40 47 39 36 42 48 48 46 44 44 44 48 56 56 56 61 78 87 91 85 76 77 69
39 38 42 44 47 54 67 74 75 78 71 65 69 67 62 56 39 51 49 47 46 49 44 41 45 54 55 51 51 53 48 51 51 56 51 61 75 74 83 88 85 78 79
Wind_Direction_850mb
220 220 225 213 216 219 241 217 220 160 161 173 175 175 167 152 150 149 141 130 133 110 86 84 76 72 71 67 63 62 60 57 56 54 53 50 47 45 43 41 37 34 30
212 222 230 225 225 232 244 225 251 257 227 187 182 184 176 171 174 176 174 161 149 107 89 80 76 73 71 69 65 63 60 57 56 54 50 49 46 44 41 39 36 32 27
224 219 230 225 226 229 230 227 232 237 231 195 180 183 180 174 175 173 171 165 147 127 107 85 80 75 72 70 66 63 59 57 55 53 52 50 47 44 42 38 35 31 27
234 230 227 227 233 231 232 226 229 241 205 201 186 179 180 177 172 176 177 167 163 142 122 103 90 81 77 72 67 64 61 59 58 56 54 51 46 44 41 37 33 30 25
240 237 227 228 227 234 237 235 234 224 207 196 183 176 171 172 173 176 181 180 174 153 127 103 101 101 83 77 71 66 63 62 60 58 55 51 47 42 38 33 30 25 22
242 241 234 226 235 233 224 227 234 219 211 201 183 173 175 178 181 182 184 184 174 156 134 121 112 102 95 83 78 71 67 64 60 56 52 48 43 37 32 29 26 22 18
239 239 244 228 238 227 235 228 230 217 202 202 185 174 172 185 191 187 187 183 169 160 155 147 126 101 87 87 90 79 70 63 58 52 46 41 37 32 28 23 20 17 13
238 239 240 242 243 234 228 234 225 208 207 204 201 188 182 195 190 190 184 182 180 169 157 148 137 121 103 89 83 79 71 63 54 45 39 34 30 26 23 18 15 12 8
226 241 238 236 236 243 241 231 239 223 227 209 207 200 182 204 189 193 195 193 187 176 167 157 148 132 111 97 85 73 65 56 48 39 32 26 23 20 17 13 9 5 1
237 240 243 240 239 234 251 238 232 225 238 221 205 207 210 214 189 189 198 199 195 187 177 164 153 140 123 105 87 69 59 51 42 34 26 20 16 13 9 6 2 357 355
234 239 238 242 242 246 243 235 229 235 233 228 219 216 214 216 213 212 194 194 194 190 185 176 166 151 134 114 91 67 53 44 33 25 17 13 9 7 4 360 356 352 351
241 238 236 237 238 245 242 238 233 233 233 223 224 219 218 215 216 212 209 197 199 189 185 182 174 166 156 136 107 67 40 31 20 11 5 2 0 360 358 354 350 348 346
242 237 232 237 238 243 243 244 239 241 233 224 226 219 222 232 233 236 240 198 190 188 188 188 183 181 176 160 133 65 6 6 1 355 352 350 351 351 350 349 346 343 342
239 233 237 240 238 242 248 239 239 237 233 229 227 219 231 239 239 241 243 223 191 188 193 192 188 191 189 199 217 296 330 338 341 341 341 342 344 345 344 344 342 341 341
237 237 236 240 243 241 244 239 239 238 227 226 223 226 232 238 238 238 240 235 218 186 193 197 198 198 199 215 247 283 309 323 327 332 336 337 340 342 342 340 341 340 340
243 240 242 241 239 247 246 244 236 228 225 224 224 230 236 239 238 228 226 214 207 204 197 211 212 203 214 230 257 282 306 322 325 329 334 337 339 341 341 341 342 339 340
241 243 245 248 247 247 241 237 235 229 226 225 227 229 235 236 228 217 211 202 202 222 216 204 202 210 217 241 267 290 304 316 323 326 331 338 341 342 343 341 340 341 339
244 245 250 247 248 244 240 241 238 232 223 223 224 230 226 220 209 205 195 197 211 210 206 210 209 211 233 256 284 292 305 315 320 322 329 339 340 344 342 339 341 342 339
239 242 248 249 250 245 242 239 231 226 221 218 215 228 217 208 200 193 199 200 198 197 239 225 218 223 245 274 286 299 304 311 319 322 331 337 342 342 338 339 343 342 338
243 247 247 246 247 242 237 233 228 215 208 210 216 216 210 203 198 202 196 190 212 237 218 228 236 250 273 302 295 298 302 308 319 325 329 338 340 337 339 340 345 342 338
247 245 246 245 238 232 230 228 219 209 209 212 205 206 197 197 203 197 195 221 218 220 244 244 249 274 281 284 289 297 306 313 325 327 329 336 334 338 341 340 344 340 338
241 243 247 245 237 228 225 218 215 209 214 204 206 204 206 199 195 206 231 208 221 239 246 260 248 275 272 277 287 295 305 316 325 332 324 331 335 339 338 337 342 338 342
242 242 242 242 235 228 218 211 212 213 208 213 218 212 193 202 207 229 218 230 221 237 242 240 266 268 269 277 284 294 302 310 316 326 322 325 338 334 333 334 339 343 346
242 243 243 238 233 227 217 214 212 210 216 219 214 212 216 215 234 245 241 235 232 239 240 247 265 271 273 278 284 291 298 302 312 317 321 322 333 329 330 330 338 343 342
242 244 243 238 233 222 215 214 211 217 214 216 214 216 212 224 237 251 264 256 233 241 239 252 262 267 273 278 282 286 295 300 307 314 323 320 326 325 327 329 334 337 334
242 247 245 240 232 219 216 220 214 224 220 211 215 213 222 226 244 262 272 253 235 241 246 258 256 267 273 278 282 286 292 293 298 309 320 313 316 323 325 325 323 329 331